K9SCH Weather Reports


Display with metric or nautical units.
time (UTC)temp
F
wind
direction
speed
MPH
gust
MPH
rain 1hr
in
rain 24hr
in
rain mn
in
humidity
%
barometer
mb
20220523204016 91 248 10.0 18.0 0.00 0.00 0.00 8 1009.3
20220523203016 90 270 8.0 17.0 0.00 0.00 0.00 8 1009.4
20220523202016 90 225 7.0 14.0 0.00 0.00 0.00 8 1009.5
20220523201017 90 270 4.0 12.0 0.00 0.00 0.00 8 1009.6
20220523200016 90 203 8.0 13.0 0.00 0.00 0.00 8 1009.8
20220523195016 89 270 6.0 12.0 0.00 0.00 0.00 8 1010.0
20220523194016 89 248 9.0 15.0 0.00 0.00 0.00 8 1010.2
20220523193016 89 248 8.0 20.0 0.00 0.00 0.00 8 1010.3
20220523192016 89 203 6.0 15.0 0.00 0.00 0.00 9 1010.5
20220523191016 89 270 7.0 19.0 0.00 0.00 0.00 9 1010.6
20220523190016 88 248 9.0 16.0 0.00 0.00 0.00 9 1011.0
20220523185017 87 270 4.0 10.0 0.00 0.00 0.00 11 1011.1
20220523184016 87 248 9.0 15.0 0.00 0.00 0.00 12 1011.3
20220523183018 87 248 9.0 16.0 0.00 0.00 0.00 13 1011.5
20220523182016 86 248 10.0 16.0 0.00 0.00 0.00 13 1011.5
20220523181021 87 248 6.0 11.0 0.00 0.00 0.00 14 1011.7
20220523180016 86 270 5.0 11.0 0.00 0.00 0.00 14 1011.7
20220523175016 85 270 5.0 14.0 0.00 0.00 0.00 14 1011.5
20220523174016 85 248 6.0 11.0 0.00 0.00 0.00 14 1011.4
20220523173016 85 270 3.0 11.0 0.00 0.00 0.00 15 1011.7
20220523172016 84 315 3.0 8.0 0.00 0.00 0.00 14 1011.8
20220523171016 85 315 3.0 8.0 0.00 0.00 0.00 14 1012.0
20220523170016 84 293 4.0 9.0 0.00 0.00 0.00 14 1012.2
20220523165019 84 270 6.0 12.0 0.00 0.00 0.00 14 1012.4
20220523164016 83 270 7.0 11.0 0.00 0.00 0.00 14 1012.2
20220523163016 83 248 3.0 6.0 0.00 0.00 0.00 14 1012.0
20220523162016 83 248 4.0 9.0 0.00 0.00 0.00 14 1012.3
20220523161015 82 270 2.0 6.0 0.00 0.00 0.00 15 1012.2
20220523160016 82 270 3.0 5.0 0.00 0.00 0.00 15 1012.4
20220523155016 83 248 4.0 7.0 0.00 0.00 0.00 15 1012.6
20220523154016 84 225 2.0 7.0 0.00 0.00 0.00 15 1012.8
20220523153016 83 158 2.0 7.0 0.00 0.00 0.00 17 1012.7
20220523152016 82 203 2.0 5.0 0.00 0.00 0.00 16 1012.7
20220523151016 81 180 1.0 4.0 0.00 0.00 0.00 16 1012.8
20220523150016 81 158 2.0 7.0 0.00 0.00 0.00 16 1012.8
20220523145015 80 135 1.0 6.0 0.00 0.00 0.00 16 1012.7
20220523144016 78 135 4.0 8.0 0.00 0.00 0.00 17 1012.6
20220523143016 78 135 1.0 5.0 0.00 0.00 0.00 17 1012.7
20220523142015 76 135 3.0 7.0 0.00 0.00 0.00 19 1012.6
20220523141016 75 135 2.0 6.0 0.00 0.00 0.00 19 1012.6
20220523140015 74 0.0 0.0 0.00 0.00 0.00 20 1012.5
20220523135016 73 0.0 0.0 0.00 0.00 0.00 21 1012.7
20220523134015 72 0.0 0.0 0.00 0.00 0.00 21 1012.5
20220523133015 70 0.0 0.0 0.00 0.00 0.00 22 1012.4
20220523132016 70 113 3.0 6.0 0.00 0.00 0.00 22 1012.1
20220523131016 69 113 2.0 4.0 0.00 0.00 0.00 22 1012.0
20220523130015 68 135 4.0 6.0 0.00 0.00 0.00 23 1011.9
20220523125015 67 113 3.0 5.0 0.00 0.00 0.00 23 1011.9
20220523124016 66 113 3.0 4.0 0.00 0.00 0.00 24 1011.7
20220523123018 66 113 3.0 5.0 0.00 0.00 0.00 25 1011.7
20220523122015 66 135 3.0 5.0 0.00 0.00 0.00 25 1011.6
20220523121015 66 113 2.0 4.0 0.00 0.00 0.00 24 1011.6
20220523120015 66 113 2.0 3.0 0.00 0.00 0.00 24 1011.5
20220523115018 66 135 2.0 4.0 0.00 0.00 0.00 24 1011.6
20220523114016 65 0.0 1.0 0.00 0.00 0.00 24 1011.7
20220523113015 65 0.0 0.0 0.00 0.00 0.00 24 1011.8
20220523112015 66 0.0 1.0 0.00 0.00 0.00 24 1011.7
20220523111015 66 0.0 1.0 0.00 0.00 0.00 24 1011.9
20220523110015 65 0.0 0.0 0.00 0.00 0.00 24 1011.8
20220523105016 66 0.0 0.0 0.00 0.00 0.00 23 1012.1
20220523104019 67 0.0 0.0 0.00 0.00 0.00 22 1012.3
20220523103015 68 0.0 1.0 0.00 0.00 0.00 22 1012.3
20220523102016 69 0.0 0.0 0.00 0.00 0.00 21 1012.3
20220523101018 69 135 2.0 3.0 0.00 0.00 0.00 21 1012.3
20220523100015 69 135 2.0 4.0 0.00 0.00 0.00 21 1012.3
20220523095015 70 135 2.0 4.0 0.00 0.00 0.00 21 1012.3
20220523094015 70 113 2.0 4.0 0.00 0.00 0.00 21 1012.3
20220523093015 70 113 2.0 4.0 0.00 0.00 0.00 21 1012.2
20220523092015 71 135 2.0 3.0 0.00 0.00 0.00 21 1012.3
20220523091016 70 135 3.0 4.0 0.00 0.00 0.00 21 1012.3
20220523090018 70 113 2.0 4.0 0.00 0.00 0.00 21 1012.4
20220523085015 71 113 3.0 5.0 0.00 0.00 0.00 21 1012.3
20220523084015 71 113 4.0 7.0 0.00 0.00 0.00 20 1012.4
20220523083015 71 113 4.0 7.0 0.00 0.00 0.00 20 1012.5
20220523082016 71 113 3.0 6.0 0.00 0.00 0.00 20 1012.5
20220523081015 71 113 3.0 7.0 0.00 0.00 0.00 19 1012.5
20220523080015 71 113 2.0 4.0 0.00 0.00 0.00 19 1012.5
20220523075019 71 135 2.0 4.0 0.00 0.00 0.00 19 1012.6
20220523074015 71 0.0 2.0 0.00 0.00 0.00 18 1012.6
20220523073015 71 113 2.0 4.0 0.00 0.00 0.00 18 1012.5
20220523072016 71 0.0 4.0 0.00 0.00 0.00 18 1012.6
20220523071015 72 0.0 0.0 0.00 0.00 0.00 18 1012.5
20220523070016 72 0.0 1.0 0.00 0.00 0.00 17 1012.5
20220523065017 73 0.0 0.0 0.00 0.00 0.00 17 1012.7
20220523064017 74 0.0 0.0 0.00 0.00 0.00 17 1012.7
20220523063017 75 0.0 1.0 0.00 0.00 0.00 16 1013.0
20220523062017 76 203 3.0 5.0 0.00 0.00 0.00 16 1013.0
20220523061019 75 203 3.0 5.0 0.00 0.00 0.00 16 1013.0
20220523060017 75 203 2.0 5.0 0.00 0.00 0.00 16 1012.8
20220523055017 74 0.0 1.0 0.00 0.00 0.00 16 1012.7
20220523054018 74 0.0 0.0 0.00 0.00 0.00 16 1012.7
20220523053017 75 0.0 0.0 0.00 0.00 0.00 16 1012.6
20220523052017 76 0.0 0.0 0.00 0.00 0.00 16 1012.5
20220523051020 78 0.0 1.0 0.00 0.00 0.00 15 1012.5
20220523050017 79 248 3.0 5.0 0.00 0.00 0.00 15 1012.5
20220523045017 79 248 3.0 5.0 0.00 0.00 0.00 15 1012.3
20220523044024 79 248 3.0 5.0 0.00 0.00 0.00 15 1012.1
20220523043023 80 248 2.0 6.0 0.00 0.00 0.00 16 1012.2
20220523042017 81 248 4.0 6.0 0.00 0.00 0.00 15 1012.3
20220523041017 81 248 5.0 7.0 0.00 0.00 0.00 15 1011.9
20220523040016 82 248 3.0 6.0 0.00 0.00 0.00 15 1011.8
20220523035017 82 248 2.0 4.0 0.00 0.00 0.00 15 1011.7
20220523034017 82 248 3.0 5.0 0.00 0.00 0.00 15 1011.5
20220523033017 83 248 2.0 4.0 0.00 0.00 0.00 15 1011.3
20220523032023 83 248 4.0 5.0 0.00 0.00 0.00 14 1011.1
20220523031017 84 248 3.0 5.0 0.00 0.00 0.00 14 1011.0
20220523030017 86 270 4.0 6.0 0.00 0.00 0.00 13 1010.6
20220523025021 86 270 5.0 8.0 0.00 0.00 0.00 13 1010.6
20220523024016 86 270 3.0 5.0 0.00 0.00 0.00 12 1010.3
20220523023017 88 270 4.0 7.0 0.00 0.00 0.00 11 1010.1
20220523022016 89 270 3.0 8.0 0.00 0.00 0.00 11 1010.0
20220523021016 89 270 5.0 8.0 0.00 0.00 0.00 11 1009.9
20220523020017 90 270 6.0 12.0 0.00 0.00 0.00 11 1009.9
20220523015017 91 270 6.0 13.0 0.00 0.00 0.00 10 1009.7
20220523014017 91 270 5.0 10.0 0.00 0.00 0.00 10 1009.7
20220523013016 92 270 8.0 15.0 0.00 0.00 0.00 10 1009.6
20220523012016 92 270 6.0 10.0 0.00 0.00 0.00 11 1009.7
20220523011016 92 270 9.0 17.0 0.00 0.00 0.00 11 1009.7
20220523010017 93 270 6.0 12.0 0.00 0.00 0.00 11 1009.7
20220523005016 93 293 5.0 13.0 0.00 0.00 0.00 11 1009.8
20220523004017 93 270 1.0 6.0 0.00 0.00 0.00 11 1009.9
20220523003017 93 248 1.0 6.0 0.00 0.00 0.00 11 1010.0
20220523002017 92 293 3.0 8.0 0.00 0.00 0.00 12 1010.1
20220523001017 93 338 1.0 6.0 0.00 0.00 0.00 11 1010.2
20220523000017 92 270 6.0 11.0 0.00 0.00 0.00 11 1010.2
20220522235016 93 270 1.0 8.0 0.00 0.00 0.00 11 1010.2
20220522234018 93 248 7.0 14.0 0.00 0.00 0.00 11 1010.3
20220522233016 93 248 8.0 14.0 0.00 0.00 0.00 11 1010.4
20220522232022 93 270 6.0 12.0 0.00 0.00 0.00 12 1010.4
20220522231017 92 248 10.0 15.0 0.00 0.00 0.00 11 1010.4
20220522230017 93 270 8.0 13.0 0.00 0.00 0.00 12 1010.4
20220522225017 93 248 5.0 10.0 0.00 0.00 0.00 11 1010.6
20220522224016 93 158 5.0 14.0 0.00 0.00 0.00 11 1010.9
20220522223018 92 225 6.0 19.0 0.00 0.00 0.00 11 1011.0
20220522222021 91 248 8.0 15.0 0.00 0.00 0.00 12 1011.3
20220522221016 93 248 6.0 15.0 0.00 0.00 0.00 11 1011.6
20220522220016 92 0.0 4.0 0.00 0.00 0.00 12 1011.6
20220522215017 91 248 5.0 10.0 0.00 0.00 0.00 12 1011.8
20220522214017 92 248 7.0 15.0 0.00 0.00 0.00 12 1012.0
20220522213016 89 248 7.0 16.0 0.00 0.00 0.00 13 1012.2
20220522212016 91 248 9.0 18.0 0.00 0.00 0.00 12 1012.3
20220522211016 91 248 7.0 16.0 0.00 0.00 0.00 12 1012.6
20220522210020 90 248 3.0 9.0 0.00 0.00 0.00 13 1012.7
20220522205016 90 270 6.0 17.0 0.00 0.00 0.00 13 1012.8